Regional Weather Roundup
Issued by NWS Jackson, KY

Home | Current Version | Previous Version | Graphics & Text | Print | Product List | Glossary On
Versions: 1 2 3 4 5 6 7 8 9 10 11 12 13 14 15 16 17 18 19 20 21 22 23 24 25 26 27 28 29 30 31 32 33 34 35 36 37 38 39 40 41 42 43 44 45 46 47 48 49 50
000
ASUS43 KJKL 261710
RWRJKL

EAST KENTUCKY HOURLY WEATHER ROUNDUP
NATIONAL WEATHER SERVICE JACKSON KY
100 PM EDT TUE MAY 26 2015

NOTE: "FAIR" INDICATES FEW OR NO CLOUDS BELOW 12,000 FEET WITH
NO SIGNIFICANT WEATHER AND/OR OBSTRUCTIONS TO VISIBILITY.

* THESE REPORTS ARE NOT UNDER NWS QUALITY CONTROL AND MAY NOT
  REPORT WEATHER SUCH AS PRECIPITATION AND FOG.

KYZ079-080-083-085-087-088-110-112-115-119-120-261800
...EASTERN KENTUCKY...

CITY           SKY/WX    TMP DP  RH WIND       PRES   REMARKS
JACKSON        MOSUNNY   80  65  59 VRB7      30.18F
LONDON         PTSUNNY   83  62  49 S15G23    30.17S
SOMERSET*      PTSUNNY   81  64  57 S12G22    30.15S
MONTICELLO*    PTSUNNY   82  69  64 S12G24    30.15F
MIDDLESBORO*   CLOUDY    81  66  60 S8G16     30.19F
HARLAN APT*    CLOUDY    79  63  57 CALM      30.21F
HAZARD APT*    MOSUNNY   82  63  51 SW13G21   30.18F
BLACK MTN*       N/A     68  63  83 E3          N/A
PIKEVILLE APT* SUNNY     79  66  65 S7        30.20F
BIG SANDY*     PTSUNNY   81  67  61 S7        30.19S
MOREHEAD APT*  PTSUNNY   82  66  57 S14G21    30.16F
$$

KYZ035-036-041-042-044-050-067-078-099-261800
...CENTRAL KENTUCKY...

CITY           SKY/WX    TMP DP  RH WIND       PRES   REMARKS
MT STERLING*   PTSUNNY   81  68  65 S14G20    30.14F
FLEMING/MASON* CLOUDY    81  66  61 S8G20     30.13F
DANVILLE*      LGT RAIN  81  68  65 S16G26    30.12S
RICHMOND*      PTSUNNY   82  64  54 S16G22    30.13S
LEXINGTON      PTSUNNY   82  67  60 S17G24    30.10F
FRANKFORT      PTSUNNY   83  67  58 S17G23    30.07F
$$

KYZ091>093-OHZ055-061-077-WVZ005-015-034-035-042-261800
...SOUTHERN OHIO/WEST VIRGINIA...

CITY           SKY/WX    TMP DP  RH WIND       PRES   REMARKS
COVINGTON      PTSUNNY   80  66  62 S14G24    30.07F
COLUMBUS       MOSUNNY   81  65  58 S13G20    30.09F
DAYTON         PTSUNNY   82  65  56 S15G25    30.06F
WILMINGTON     MOSUNNY   81  62  52 S18       30.08F
HUNTINGTON     PTSUNNY   85  65  51 S12G18    30.14F
CHARLESTON     PTSUNNY   80  64  58 S7        30.18F
PINEVILLE*     PTSUNNY   80  68  65 MISG      30.29S
BECKLEY        PTSUNNY   78  61  55 SW7       30.28F
BLUEFIELD      PTSUNNY   79  63  57 SW8       30.31F
$$

VAZ002-007-008-TNZ017-027-036-066-071-261800
...SOUTHWEST VIRGINIA/EAST TENNESSEE...

CITY           SKY/WX    TMP DP  RH WIND       PRES   REMARKS
WISE*          PTSUNNY   77  61  57 S12G18    30.30S
JONESVILLE*    PTSUNNY   81  64  57 SE10      30.24F
ABINGDON*      PTSUNNY   79  65  62 W9        30.28S
BRISTOL        CLOUDY    79  63  57 S8        30.25S
KNOXVILLE      PTSUNNY   83  65  54 MISG      30.17F
OAK RIDGE      CLOUDY    83  68  60 VRB3      30.19F
CROSSVILLE     PTSUNNY   76  65  68 MISG      30.21F
NASHVILLE      LGT RAIN  75  69  81 S17       30.10R
$$

...KEY TO REMARKS...
VSB - VISIBILITY IN MILES
WCI - WIND CHILL INDEX
HX  - HEAT INDEX

$$



USA.gov is the U.S. government's official web portal to all federal, state and local government web resources and services.